This demonstration page uses our WeatherBlox Daily Observations layout. Learn more.

Left ArrowRight Arrow

30.21309, -93.2044

Hourly Observations for July 14, 2021

Temp ( °F °C ) Dew Point ( °F °C ) Humidity (%) Winds ( mph kmh ) Pressure ( in mb ) Visibility ( mi km ) Precip ( " mm )
12:15 am 00:15 Clear 75 24.1 73 22.7 92 92 ENE 3 6 30.19 1022 10 16 0.00 0.00
12:35 am 00:35 Clear 74 23.6 72 22.4 93 93 E 5 7 30.18 1022 10 16 0.00 0.00
12:55 am 00:55 Clear 74 23.6 73 22.5 94 94 E 5 7 30.18 1022 10 16 0.00 0.00
1:15 am 01:15 Clear 74 23.5 72 22.2 92 92 E 5 7 30.17 1022 10 16 0.00 0.00
1:35 am 01:35 Clear 74 23.6 72 22.1 91 91 SE 3 6 30.17 1022 10 16 0.00 0.00
1:55 am 01:55 Clear 74 23.6 71 21.9 90 90 Calm 30.18 1022 10 16 0.00 0.00
2:15 am 02:15 Clear 75 23.7 72 22.1 91 91 NE 3 6 30.18 1022 10 16 0.00 0.00
2:35 am 02:35 Clear 74 23.6 72 22.2 92 92 NE 3 6 30.18 1022 10 16 0.00 0.00
2:55 am 02:55 Clear 74 23.6 72 22.2 92 92 Calm 30.18 1022 10 16 0.00 0.00
3:15 am 03:15 Clear 74 23.6 72 22.2 92 92 NE 3 6 30.18 1022 10 16 0.00 0.00
3:35 am 03:35 Clear 74 23.3 72 22 92 92 E 3 6 30.18 1022 10 16 0.00 0.00
3:55 am 03:55 Clear 73 23 72 22 94 94 Calm 30.18 1022 10 16 0.00 0.00
4:15 am 04:15 Clear 74 23.3 72 22.2 94 94 ENE 3 6 30.17 1022 10 16 0.00 0.00
4:35 am 04:35 Clear 74 23.3 72 22 92 92 Calm 30.18 1022 10 16 0.00 0.00
4:55 am 04:55 Clear 74 23.3 72 22 92 92 Calm 30.18 1022 10 16 0.00 0.00
5:15 am 05:15 Clear 74 23.1 71 21.9 93 93 Calm 30.17 1022 10 16 0.00 0.00
5:35 am 05:35 Clear 74 23.4 72 22.1 92 92 ENE 3 6 30.17 1022 10 16 0.00 0.00
6:00 am 06:00 Mostly Clear 73 23 72 22 94 94 Calm 30.17 1022 10 16 0.00 0.00
6:45 am 06:45 Mostly Sunny 73 23 72 22 94 94 Calm 30.18 1022 10 16 0.00 0.00
7:50 am 07:50 Partly Cloudy 77 25 73 23 89 89 Calm 30.19 1022 10 16 0.00 0.00
8:55 am 08:55 Mostly Sunny 82 28 75 24 79 79 E 6 9 30.20 1023 10 16 0.00 0.00
9:45 am 09:45 Mostly Cloudy 84 29 75 24 74 74 ESE 6 9 30.21 1023 10 16 0.00 0.00
10:50 am 10:50 Mostly Cloudy 88 31 73 23 62 62 E 8 13 30.21 1023 10 16 0.00 0.00
11:45 am 11:45 Mostly Cloudy with Thunderstorms 88 31 75 24 66 66 ESE 12 19 30.21 1023 10 16 0.00 0.00
12:45 pm 12:45 Mostly Cloudy with Thunderstorms 84 29 75 24 74 74 SSE 13 20 30.20 1023 10 16 0.00 0.00
1:47 pm 13:47 Mostly Cloudy with Thunderstorms 84 29 73 23 70 70 SE 13 20 30.18 1022 10 16 0.00 0.00
2:50 pm 14:50 Partly Cloudy 88 31 73 23 62 62 SE 9 15 30.16 1021 10 16 0.00 0.00
3:50 pm 15:50 Partly Cloudy 88 31 73 23 62 62 SE 9 15 30.15 1021 10 16 0.00 0.00
4:55 pm 16:55 Partly Cloudy 88 31 73 23 62 62 SSE 12 19 30.14 1021 10 16 0.00 0.00
5:55 pm 17:55 Partly Cloudy 84 29 75 24 74 74 SSE 10 17 30.14 1021 10 16 0.00 0.00
6:50 pm 18:50 Mostly Sunny 84 29 72 22 66 66 S 5 7 30.13 1020 10 16 0.00 0.00
7:50 pm 19:50 Partly Cloudy 82 28 75 24 79 79 SSE 6 9 30.14 1021 10 16 0.00 0.00
8:50 pm 20:50 Partly Cloudy 81 27 75 24 84 84 S 6 9 30.12 1020 10 16 0.00 0.00
9:50 pm 21:50 Mostly Clear 81 27 75 24 84 84 S 5 7 30.14 1021 10 16 0.00 0.00
10:15 pm 22:15 Clear 79 26 75 24 89 89 SSE 3 6 30.15 1021 10 16 0.00 0.00
10:35 pm 22:35 Clear 79 26.1 75 24 88 88 ESE 3 6 30.16 1021 10 16 0.00 0.00
10:55 pm 22:55 Clear 79 26.2 75 24 88 88 ENE 6 9 30.16 1021 10 16 0.00 0.00
11:15 pm 23:15 Clear 78 25.7 75 24.1 91 91 E 6 9 30.15 1021 10 16 0.00 0.00
11:35 pm 23:35 Clear 78 25.3 75 23.9 92 92 E 6 9 30.16 1021 10 16 0.00 0.00
11:55 pm 23:55 Clear 77 25.2 75 23.8 92 92 ESE 6 9 30.15 1021 10 16 0.00 0.00

Powered by AerisWeather